EW5042 Weather Reports


time (UTC)temp
C
wind
direction
speed
KPH
gust
KPH
rain 1hr
cm
rain 24hr
cm
rain mn
cm
humidity
%
barometer
mb
20260906080039 29 148 3.2 9.7 0.00 0.00 0.00 66 1016.7
20260906074540 28 77 0.0 12.9 0.00 0.00 0.00 68 1016.6
20260906073036 28 5 1.6 9.7 0.00 0.00 0.00 70 1016.5
20260906071532 28 316 1.6 6.4 0.00 0.00 0.00 72 1016.5
20260906070025 27 164 1.6 11.3 0.00 0.00 0.00 74 1016.4
20260906064526 27 117 1.6 6.4 0.00 0.00 0.00 78 1016.2
20260906063017 26 102 0.0 3.2 0.00 0.00 0.00 81 1016.1
20260906061512 25 123 0.0 3.2 0.00 0.00 0.00 83 1016.2
20260906060011 25 94 0.0 4.8 0.00 0.00 0.00 83 1016.2
20260906054506 25 119 0.0 8.0 0.00 0.00 0.00 83 1016.0
20260906053006 25 246 0.0 4.8 0.00 0.00 0.00 84 1016.0
20260906051505 25 229 0.0 4.8 0.00 0.00 0.00 84 1015.9
20260906050011 25 227 0.0 3.2 0.00 0.00 0.00 84 1016.0
20260906044501 25 342 0.0 6.4 0.00 0.00 0.00 83 1016.0
20260906043109 25 320 0.0 4.8 0.00 0.00 0.00 83 1015.8
20260906041600 25 28 0.0 0.0 0.00 0.00 0.00 83 1015.9
20260906040059 25 28 0.0 0.0 0.00 0.00 0.00 83 1015.8
20260906034601 25 28 0.0 3.2 0.00 0.00 0.00 83 1015.6
20260906033057 25 79 0.0 4.8 0.00 0.00 0.00 83 1015.6
20260906031622 25 228 0.0 4.8 0.00 0.00 0.00 83 1015.6
20260906030056 25 58 0.0 6.4 0.00 0.00 0.00 83 1015.6
20260906024556 25 21 0.0 9.7 0.00 0.00 0.00 83 1015.7
20260906023108 25 14 0.0 6.4 0.00 0.00 0.00 83 1015.8
20260906021554 25 101 0.0 3.2 0.00 0.00 0.00 83 1015.8
20260906020058 25 115 0.0 0.0 0.00 0.00 0.00 83 1015.8
20260906014552 25 283 0.0 3.2 0.00 0.00 0.00 83 1015.8
20260906013051 25 281 0.0 0.0 0.00 0.00 0.00 83 1015.8
20260906011556 25 282 0.0 3.2 0.00 0.00 0.00 83 1015.8
20260906010051 25 280 0.0 0.0 0.00 0.00 0.00 83 1015.7
20260906004556 25 275 0.0 3.2 0.00 0.00 0.00 83 1015.8
20260906003052 25 311 0.0 3.2 0.00 0.00 0.00 83 1015.7
20260906001548 25 283 0.0 8.0 0.00 0.00 0.00 83 1015.7
20260906000052 25 329 0.0 6.4 0.00 0.00 0.00 83 1015.8
20260905234545 25 44 0.0 4.8 0.00 0.00 0.00 83 1016.0
20260905233049 25 278 0.0 11.3 0.00 0.00 0.00 83 1016.1
20260905231547 25 257 0.0 11.3 0.00 0.00 0.00 83 1016.2
20260905230042 25 265 0.0 3.2 0.00 0.00 0.00 83 1016.2
20260905224541 25 240 0.0 4.8 0.00 0.00 0.00 83 1016.2
20260905223041 25 211 0.0 3.2 0.00 0.00 0.00 83 1016.2
20260905221553 26 316 0.0 1.6 0.00 0.00 0.00 82 1016.2
20260905220040 26 316 0.0 1.6 0.00 0.00 0.00 82 1016.2
20260905214537 26 310 0.0 4.8 0.00 0.00 0.00 82 1016.2
20260905213037 26 355 0.0 3.2 0.00 0.00 0.00 81 1016.3
20260905211536 26 355 0.0 4.8 0.00 0.00 0.00 81 1016.3
20260905210036 26 302 0.0 0.0 0.00 0.00 0.00 80 1016.2
20260905204538 26 302 0.0 4.8 0.00 0.00 0.00 80 1016.3
20260905203035 26 34 0.0 0.0 0.00 0.00 0.00 80 1016.3
20260905201536 26 35 0.0 0.0 0.00 0.00 0.00 80 1016.3
20260905200038 26 40 0.0 1.6 0.00 0.00 0.00 79 1016.3
20260905194533 26 64 0.0 1.6 0.00 0.00 0.00 79 1016.2
20260905193040 26 58 0.0 3.2 0.00 0.00 0.00 79 1016.3
20260905191532 26 338 0.0 1.6 0.00 0.00 0.00 79 1016.2
20260905190041 26 338 0.0 4.8 0.00 0.00 0.00 79 1016.1
20260905184534 26 70 0.0 0.0 0.00 0.00 0.00 78 1016.0
20260905183031 27 5 0.0 0.0 0.00 0.00 0.00 78 1015.9
20260905181533 27 115 0.0 4.8 0.00 0.00 0.00 77 1015.7
20260905180044 27 47 0.0 0.0 0.00 0.00 0.00 76 1015.6
20260905174529 27 79 0.0 0.0 0.00 0.00 0.00 74 1015.5
20260905173028 27 336 0.0 3.2 0.00 0.00 0.00 73 1015.6
20260905171545 27 349 0.0 4.8 0.00 0.00 0.00 72 1015.4
20260905170028 27 223 0.0 4.8 0.00 0.00 0.00 71 1015.4
20260905164527 28 78 0.0 6.4 0.00 0.00 0.00 70 1015.4
20260905163026 28 315 1.6 6.4 0.00 0.00 0.00 69 1015.4
20260905161527 28 76 1.6 6.4 0.00 0.00 0.00 68 1015.5
20260905160044 28 157 0.0 14.5 0.00 0.00 0.00 67 1015.5
20260905154525 29 69 0.0 14.5 0.00 0.00 0.00 65 1015.6
20260905153027 29 118 1.6 8.0 0.00 0.00 0.00 62 1015.6
20260905151524 30 40 0.0 6.4 0.00 0.00 0.00 57 1015.6
20260905150024 31 148 3.2 8.0 0.00 0.00 0.00 48 1015.6
20260905144528 31 58 0.0 9.7 0.00 0.00 0.00 43 1015.5
20260905143023 32 76 0.0 14.5 0.00 0.00 0.00 43 1015.6
20260905141523 31 155 0.0 12.9 0.00 0.00 0.00 51 1015.5
20260905140023 32 92 1.6 16.1 0.00 0.00 0.00 53 1015.7
20260905134520 32 67 0.0 16.1 0.00 0.00 0.00 50 1015.7
20260905133025 32 114 1.6 12.9 0.00 0.00 0.00 44 1015.7
20260905131520 32 124 1.6 11.3 0.00 0.00 0.00 38 1015.8
20260905130019 32 137 1.6 9.7 0.00 0.00 0.00 43 1016.0
20260905124518 32 329 3.2 11.3 0.00 0.00 0.00 42 1016.1
20260905123020 33 67 1.6 14.5 0.00 0.00 0.00 42 1016.2
20260905121517 32 96 4.8 20.9 0.00 0.00 0.00 38 1016.2
20260905120033 33 84 1.6 17.7 0.00 0.00 0.00 33 1016.2
20260905114514 33 72 1.6 11.3 0.00 0.00 0.00 40 1016.3
20260905113014 33 72 0.0 20.9 0.00 0.00 0.00 43 1016.4
20260905111510 32 107 0.0 6.4 0.00 0.00 0.00 47 1016.3
20260905110017 32 115 1.6 14.5 0.00 0.00 0.00 49 1016.2
20260905104510 32 164 1.6 11.3 0.00 0.00 0.00 51 1016.2
20260905103016 32 74 1.6 14.5 0.00 0.00 0.00 51 1016.2
20260905101506 31 113 1.6 16.1 0.00 0.00 0.00 55 1016.3
20260905100005 32 109 0.0 6.4 0.00 0.00 0.00 54 1016.2
20260905094501 32 88 0.0 6.4 0.00 0.00 0.00 53 1016.2
20260905093120 32 29 0.0 9.7 0.00 0.00 0.00 51 1016.3
20260905091559 31 77 0.0 16.1 0.00 0.00 0.00 52 1016.2
20260905090053 31 80 0.0 6.4 0.00 0.00 0.00 54 1016.4
20260905084553 31 83 0.0 11.3 0.00 0.00 0.00 57 1016.4
20260905083046 30 82 3.2 12.9 0.00 0.00 0.00 58 1016.4
20260905081545 30 87 0.0 4.8 0.00 0.00 0.00 59 1016.3